OAL792 LGTS-LGAV

Flight info

Callsign OAL792
Flight time N/A
Altitude 7500
Route LEKPO UL617 SKP UM749 ROPOX
Aircraft C172/L-SDE2E3FGHIRWXY/LB1

Departure

Time 2026-05-04 18:13
Airport Thessaloniki Macedonia International Airport (LGTS)

Arrival

Time N/A
Airport Athens Eleftherios Venizelos International Airport (LGAV)
Time Latitude Longitude Altitude Speed Heading
2026-05-04 18:08 40.52366 22.97343 -99 ft 0 kts 43°
2026-05-04 18:09 40.52382 22.97193 10 ft 14 kts 288°
2026-05-04 18:10 40.52386 22.97176 10 ft 0 kts 288°
2026-05-04 18:10 40.52428 22.97125 10 ft 18 kts 343°
2026-05-04 18:10 40.52610 22.97077 12 ft 32 kts 346°
2026-05-04 18:10 40.52817 22.97006 12 ft 27 kts 345°
2026-05-04 18:11 40.52978 22.96957 13 ft 21 kts 345°
2026-05-04 18:11 40.53067 22.96879 13 ft 14 kts 259°
2026-05-04 18:11 40.53014 22.96783 13 ft 12 kts 208°
2026-05-04 18:11 40.52977 22.96773 13 ft 0 kts 171°
2026-05-04 18:12 40.52845 22.96815 14 ft 40 kts 166°
2026-05-04 18:12 40.52440 22.96938 11 ft 80 kts 165°
2026-05-04 18:12 40.51840 22.97118 164 ft 91 kts 168°
2026-05-04 18:13 40.51230 22.97301 421 ft 88 kts 162°
2026-05-04 18:13 40.50654 22.97712 578 ft 98 kts 165°
2026-05-04 18:13 40.49856 22.96544 899 ft 104 kts 257°
2026-05-04 18:14 40.49644 22.95631 1014 ft 107 kts 264°
2026-05-04 18:14 40.49821 22.94739 1113 ft 101 kts 313°
2026-05-04 18:14 40.50418 22.94280 1125 ft 108 kts 341°
2026-05-04 18:15 40.51972 22.94060 1001 ft 113 kts 358°
2026-05-04 18:15 40.53584 22.93727 587 ft 125 kts 340°
2026-05-04 18:15 40.54370 22.93269 475 ft 121 kts 335°
2026-05-04 18:16 40.55123 22.92781 334 ft 119 kts 336°
2026-05-04 18:16 40.55816 22.92221 202 ft 115 kts 322°
2026-05-04 18:16 40.56352 22.91574 670 ft 124 kts 320°
2026-05-04 18:17 40.57303 22.90352 1289 ft 85 kts 320°
2026-05-04 18:17 40.57721 22.89798 1395 ft 90 kts 316°
2026-05-04 18:17 40.58604 22.88529 1504 ft 97 kts 335°
2026-05-04 18:18 40.59288 22.88486 1513 ft 102 kts 17°
2026-05-04 18:18 40.59787 22.89149 1590 ft 111 kts 63°
2026-05-04 18:18 40.59739 22.90207 1618 ft 124 kts 108°
2026-05-04 18:18 40.59341 22.91147 1838 ft 114 kts 118°
2026-05-04 18:19 40.58416 22.93002 1946 ft 120 kts 116°
2026-05-04 18:19 40.57953 22.93936 1986 ft 129 kts 131°
2026-05-04 18:19 40.57278 22.94668 1805 ft 124 kts 143°
2026-05-04 18:20 40.56511 22.95267 1360 ft 130 kts 150°
2026-05-04 18:20 40.55726 22.95797 970 ft 125 kts 156°
2026-05-04 18:20 40.54907 22.96111 630 ft 119 kts 170°
2026-05-04 18:20 40.54138 22.96383 316 ft 113 kts 155°
2026-05-04 18:21 40.53417 22.96667 97 ft 101 kts 173°
2026-05-04 18:21 40.52787 22.96830 19 ft 82 kts 166°
2026-05-04 18:21 40.52296 22.96988 9 ft 64 kts 165°
2026-05-04 18:21 40.51995 22.97091 6 ft 20 kts 161°
2026-05-04 18:22 40.52710 22.96854 13 ft 0 kts 167°
2026-05-04 18:22 40.52671 22.96843 12 ft 25 kts 207°
2026-05-04 18:22 40.52539 22.96697 11 ft 7 kts 224°
2026-05-04 18:22 40.52532 22.96689 11 ft 0 kts 218°